EW0199 Weather Reports


Display with metric or nautical units.
time (UTC)temp
F
wind
direction
speed
MPH
gust
MPH
rain 1hr
in
rain 24hr
in
rain mn
in
humidity
%
barometer
mb
20260904211832 71 118 0.0 1.0 0.00 0.47 0.37 97 1012.0
20260904211411 72 272 0.0 1.0 0.00 0.47 0.37 97 1012.0
20260904210836 71 80 0.0 2.0 0.00 0.47 0.37 97 1012.1
20260904210414 71 283 0.0 2.0 0.00 0.47 0.37 97 1012.1
20260904205842 71 79 0.0 3.0 0.00 0.47 0.37 97 1012.1
20260904205406 71 302 0.0 3.0 0.00 0.47 0.37 97 1012.1
20260904204851 71 310 1.0 2.0 0.00 0.47 0.37 97 1012.1
20260904204336 72 290 0.0 1.0 0.00 0.47 0.37 97 1012.1
20260904203901 71 290 0.0 1.0 0.00 0.47 0.37 97 1012.2
20260904203342 72 314 0.0 0.0 0.00 0.47 0.37 97 1012.3
20260904202333 71 272 0.0 1.0 0.00 0.47 0.37 96 1012.4
20260904201841 71 304 0.0 1.0 0.00 0.47 0.37 96 1012.4
20260904201338 71 304 0.0 1.0 0.00 0.47 0.37 96 1012.5
20260904200333 71 305 0.0 1.0 0.00 0.47 0.37 96 1012.6
20260904195842 71 305 0.0 0.0 0.00 0.47 0.37 97 1012.6
20260904195354 71 305 0.0 1.0 0.00 0.47 0.37 96 1012.7
20260904135912 66 223 0.0 1.0 0.00 1.12 0.37 98 1012.6
20260904135335 66 223 0.0 1.0 0.00 1.12 0.37 98 1012.8
20260904134901 66 223 0.0 0.0 0.00 1.12 0.37 99 1012.9
20260904134424 66 223 0.0 0.0 0.00 1.12 0.37 99 1013.0
20260904133932 66 223 0.0 0.0 0.00 1.12 0.37 99 1013.0
20260904133421 66 223 0.0 0.0 0.00 1.12 0.37 99 1013.0
20260904132835 66 223 0.0 0.0 0.00 1.12 0.37 98 1013.0
20260904132400 66 223 0.0 0.0 0.00 1.12 0.37 98 1013.0
20260904131922 65 223 0.0 0.0 0.00 1.12 0.37 98 1012.9
20260904131429 65 223 0.0 0.0 0.00 1.12 0.37 98 1012.9
20260904130852 65 223 0.0 0.0 0.00 1.12 0.37 98 1012.9
20260904130359 65 223 0.0 0.0 0.00 1.12 0.37 98 1013.0
20260904125922 65 223 0.0 0.0 0.00 1.12 0.37 98 1013.0
20260904125336 65 223 0.0 0.0 0.00 1.12 0.37 98 1013.1
20260904124845 65 223 0.0 0.0 0.00 1.12 0.37 98 1013.0
20260904124349 65 224 0.0 0.0 0.00 1.12 0.37 98 1012.9
20260904123913 65 223 0.0 0.0 0.00 1.12 0.37 98 1012.7
20260904123359 65 223 0.0 0.0 0.00 1.12 0.37 98 1012.4
20260904122924 65 223 0.0 0.0 0.00 1.12 0.37 98 1012.4
20260904122330 65 223 0.0 0.0 0.00 1.12 0.37 98 1012.3
20260904121852 65 223 0.0 0.0 0.00 1.12 0.37 98 1012.1
20260904121350 65 224 0.0 0.0 0.00 1.12 0.37 98 1012.1
20260904120920 65 223 0.0 1.0 0.00 1.12 0.37 98 1012.3
20260904120330 65 223 0.0 0.0 0.00 1.12 0.37 98 1012.4
20260904115850 65 223 0.0 0.0 0.00 1.12 0.37 98 1012.4
20260904115354 65 224 0.0 1.0 0.00 1.12 0.37 98 1012.3
20260904114915 65 223 0.0 1.0 0.00 1.12 0.37 98 1012.2
20260904114335 65 223 0.0 1.0 0.00 1.12 0.37 98 1012.2
20260904113843 65 223 0.0 1.0 0.00 1.12 0.37 98 1012.1
20260904113352 65 230 0.0 1.0 0.00 1.12 0.37 98 1011.9
20260904112859 65 231 0.0 1.0 0.00 1.12 0.37 98 1012.1
20260904112324 65 292 0.0 1.0 0.00 1.12 0.37 98 1011.9
20260904111848 65 292 0.0 1.0 0.00 1.12 0.37 98 1012.0
20260904111354 65 321 0.0 1.0 0.01 1.12 0.37 98 1012.3
20260904110841 65 321 0.0 1.0 0.01 1.12 0.37 98 1012.1
20260904110405 65 321 0.0 1.0 0.01 1.12 0.37 98 1011.9
20260904105831 65 321 0.0 1.0 0.01 1.12 0.37 98 1011.8
20260904105341 65 321 0.0 1.0 0.01 1.12 0.37 98 1011.6
20260904104850 65 77 0.0 3.0 0.01 1.12 0.37 98 1011.6
20260904104359 65 288 0.0 2.0 0.01 1.12 0.37 98 1011.7
20260904103841 65 305 0.0 1.0 0.01 1.12 0.37 98 1011.7
20260904103405 65 305 0.0 1.0 0.01 1.12 0.37 98 1011.6
20260904102917 65 305 0.0 1.0 0.01 1.12 0.37 98 1011.8
20260904102422 65 308 0.0 0.0 0.01 1.12 0.37 98 1011.7
20260904101843 65 308 0.0 0.0 0.01 1.12 0.37 98 1012.0
20260904101357 65 309 0.0 1.0 0.02 1.11 0.36 98 1012.1
20260904100918 65 309 0.0 1.0 0.02 1.11 0.36 98 1012.2
20260904100348 65 92 0.0 1.0 0.02 1.11 0.36 98 1012.3
20260904095910 65 92 0.0 1.0 0.02 1.11 0.36 98 1012.5
20260904095419 65 283 0.0 2.0 0.03 1.11 0.36 98 1011.9
20260904094928 65 283 0.0 2.0 0.16 1.11 0.36 98 1012.8
20260904094330 65 340 0.0 3.0 0.27 1.11 0.36 98 1012.6
20260904093854 65 277 0.0 3.0 0.34 1.11 0.36 98 1012.2
20260904093416 65 292 0.0 2.0 0.35 1.11 0.36 98 1012.3
20260904092916 65 354 0.0 2.0 0.35 1.11 0.36 98 1012.5
20260904092331 65 309 0.0 2.0 0.35 1.11 0.36 98 1012.9
20260904091853 65 317 0.0 1.0 0.33 1.09 0.34 98 1012.6
20260904091406 65 314 0.0 3.0 0.33 1.09 0.34 98 1012.8
20260904090827 65 314 0.0 3.0 0.33 1.09 0.34 98 1012.7
20260904090350 65 231 0.0 3.0 0.33 1.09 0.34 98 1012.0
20260904085915 65 220 0.0 3.0 0.33 1.09 0.34 98 1012.2
20260904085328 65 288 1.0 3.0 0.31 1.07 0.32 98 1012.4
20260904084850 65 320 0.0 1.0 0.18 0.94 0.19 98 1012.1
20260904083845 65 250 0.0 0.0 0.01 0.77 0.02 98 1011.9
20260904082844 65 250 0.0 1.0 0.00 0.76 0.01 98 1012.0
20260904082402 65 250 0.0 1.0 0.00 0.76 0.01 98 1011.4
20260904081910 65 248 0.0 0.0 0.00 0.76 0.01 98 1011.7
20260904080846 65 248 0.0 0.0 0.00 0.76 0.01 98 1012.2
20260904075844 65 248 0.0 0.0 0.01 0.76 0.01 98 1011.7
20260904075407 65 248 0.0 0.0 0.01 0.76 0.01 98 1012.1
20260904074343 65 257 0.0 1.0 0.01 0.76 0.01 98 1011.9
20260904073346 65 336 0.0 1.0 0.01 0.76 0.01 98 1012.0
20260904072344 65 334 0.0 1.0 0.01 0.76 0.01 98 1012.4
20260904071411 65 130 0.0 1.0 0.01 0.76 0.01 98 1012.4
20260904070917 65 131 0.0 1.0 0.01 0.76 0.01 98 1012.6
20260904070341 65 130 0.0 1.0 0.00 0.75 0.00 98 1012.4
20260904065834 65 130 0.0 1.0 0.00 0.75 0.00 98 1012.6
20260904065340 65 231 0.0 0.0 0.01 0.75 0.00 98 1012.6
20260904064847 65 231 0.0 1.0 0.01 0.75 0.00 98 1012.3
20260904064352 65 231 0.0 1.0 0.01 0.75 0.00 98 1012.0
20260904063841 65 231 0.0 1.0 0.01 0.75 0.00 98 1011.9
20260904063327 65 231 0.0 1.0 0.01 0.75 0.00 98 1012.5
20260904062834 65 223 0.0 1.0 0.01 0.75 0.00 98 1012.6
20260904062340 65 223 0.0 0.0 0.01 0.75 0.00 98 1012.3
20260904061826 65 223 0.0 0.0 0.01 0.75 0.00 98 1012.4
20260904061332 65 223 0.0 0.0 0.01 0.75 0.00 98 1012.4
20260904060837 65 223 0.0 1.0 0.01 0.75 0.00 98 1012.0
20260904060324 65 148 0.0 1.0 0.01 0.75 0.75 98 1012.0
20260904055831 65 310 0.0 0.0 0.01 0.75 0.75 98 1011.8
20260904055338 65 310 0.0 1.0 0.00 0.74 0.74 98 1012.4
20260904054826 65 293 0.0 1.0 0.02 0.74 0.74 98 1012.9
20260904054333 65 293 0.0 0.0 0.02 0.74 0.74 98 1012.6
20260904053900 65 293 0.0 1.0 0.02 0.74 0.74 98 1012.6
20260904053325 65 293 0.0 1.0 0.05 0.74 0.74 98 1012.7
20260904052830 65 293 0.0 0.0 0.05 0.74 0.74 98 1012.3
20260904052337 65 293 0.0 0.0 0.08 0.74 0.74 98 1012.2
20260904051823 65 271 0.0 1.0 0.09 0.74 0.74 98 1012.3
20260904051329 65 271 0.0 1.0 0.09 0.74 0.74 98 1012.3
20260904050854 65 271 0.0 1.0 0.09 0.74 0.74 98 1012.3
20260904050339 65 271 0.0 1.0 0.09 0.74 0.74 98 1012.6
20260904045839 65 271 0.0 1.0 0.09 0.74 0.74 98 1012.6
20260904045356 65 96 0.0 1.0 0.09 0.74 0.74 98 1012.8
20260904044920 65 97 0.0 1.0 0.07 0.72 0.72 98 1013.3
20260904044339 65 318 0.0 1.0 0.07 0.72 0.72 98 1013.4
20260904043341 65 314 0.0 1.0 0.04 0.69 0.69 98 1013.8
20260904042905 65 314 0.0 1.0 0.04 0.69 0.69 98 1013.1
20260904042325 65 314 0.0 0.0 0.00 0.65 0.65 98 1013.7
20260904041847 65 314 0.0 2.0 0.00 0.65 0.65 98 1013.7
20260904041406 65 314 0.0 2.0 0.00 0.65 0.65 98 1013.4
20260904040831 65 288 0.0 0.0 0.00 0.65 0.65 98 1013.3
20260904040346 65 287 0.0 0.0 0.00 0.65 0.65 98 1013.2
20260904035859 65 288 0.0 0.0 0.00 0.65 0.65 98 1013.3
20260904035411 65 287 0.0 0.0 0.00 0.65 0.65 98 1013.2
20260904034918 65 288 0.0 0.0 0.00 0.65 0.65 98 1013.5
20260904034326 65 288 0.0 0.0 0.00 0.65 0.65 98 1013.6
20260904033851 65 288 0.0 0.0 0.00 0.65 0.65 98 1013.7
20260904033419 65 288 0.0 0.0 0.00 0.65 0.65 98 1013.7
20260904032923 65 288 0.0 0.0 0.00 0.65 0.65 97 1013.4
20260904032344 65 288 0.0 0.0 0.00 0.65 0.65 97 1013.3
20260904031856 65 288 0.0 0.0 0.00 0.65 0.65 97 1013.5
20260904031415 65 288 0.0 0.0 0.00 0.65 0.65 97 1013.5
20260904030837 65 288 0.0 0.0 0.00 0.65 0.65 97 1013.5
20260904030400 65 288 0.0 0.0 0.00 0.65 0.65 97 1013.5
20260904025907 65 288 0.0 0.0 0.00 0.65 0.65 97 1013.7
20260904025334 65 287 0.0 0.0 0.00 0.65 0.65 97 1013.7
20260904024843 65 287 0.0 0.0 0.00 0.65 0.65 97 1013.4
20260904024411 65 288 0.0 0.0 0.00 0.65 0.65 97 1013.2
20260904023919 65 288 0.0 0.0 0.00 0.65 0.65 97 1013.2
20260904023338 65 288 0.0 0.0 0.00 0.65 0.65 97 1013.7
20260904022906 65 288 0.0 0.0 0.00 0.65 0.65 97 1013.8
20260904022431 65 287 0.0 0.0 0.00 0.65 0.65 97 1013.9
20260904021914 65 288 0.0 0.0 0.00 0.65 0.65 97 1013.9
20260904021402 66 287 0.0 0.0 0.00 0.65 0.65 97 1013.7
20260904020912 66 287 0.0 1.0 0.00 0.65 0.65 97 1013.6
20260904020419 66 288 0.0 1.0 0.00 0.65 0.65 97 1013.5
20260904015902 66 311 0.0 0.0 0.00 0.65 0.65 97 1013.2
20260904015327 66 312 0.0 0.0 0.00 0.65 0.65 97 1013.4
20260904014857 66 311 0.0 0.0 0.00 0.65 0.65 97 1013.3
20260904014422 66 312 0.0 0.0 0.00 0.65 0.65 97 1013.6
20260904013848 66 311 0.0 0.0 0.00 0.65 0.65 97 1013.4
20260904013415 66 312 0.0 0.0 0.00 0.65 0.65 97 1013.5
20260904012908 66 311 0.0 1.0 0.00 0.65 0.65 97 1013.5
20260904012414 66 311 0.0 1.0 0.00 0.65 0.65 97 1013.5
20260904011831 67 311 0.0 1.0 0.00 0.65 0.65 97 1013.3
20260904011353 67 311 0.0 0.0 0.00 0.65 0.65 97 1013.0
20260904010857 67 311 0.0 1.0 0.00 0.65 0.65 97 1012.9
20260904010344 67 312 0.0 1.0 0.00 0.65 0.65 97 1013.1
20260904005903 67 312 0.0 0.0 0.00 0.65 0.65 97 1013.0
20260904005330 67 311 0.0 0.0 0.00 0.65 0.65 97 1013.1
20260904004837 67 311 0.0 0.0 0.00 0.65 0.65 96 1013.3
20260904004359 67 312 0.0 0.0 0.00 0.65 0.65 96 1013.5
20260904003901 68 311 0.0 1.0 0.00 0.65 0.65 96 1013.1
20260904003428 68 312 0.0 1.0 0.00 0.65 0.65 96 1013.0
20260904002832 68 312 0.0 0.0 0.00 0.65 0.65 96 1012.7
20260904002340 68 312 0.0 0.0 0.00 0.65 0.65 96 1012.8
20260904001857 68 311 0.0 0.0 0.00 0.65 0.65 96 1012.9
20260904001422 68 311 0.0 0.0 0.00 0.65 0.65 95 1013.0
20260904000836 69 312 0.0 0.0 0.00 0.65 0.65 95 1012.8
20260904000355 69 312 0.0 0.0 0.00 0.65 0.65 95 1012.7
20260903235917 69 312 0.0 0.0 0.00 0.65 0.65 95 1012.7
20260903235324 69 312 0.0 0.0 0.00 0.65 0.65 95 1012.9
20260903234849 70 312 0.0 0.0 0.00 0.65 0.65 95 1012.9
20260903234358 70 311 0.0 0.0 0.00 0.65 0.65 95 1012.9
20260903233909 70 312 0.0 0.0 0.00 0.65 0.65 94 1012.9
20260903233417 70 312 0.0 0.0 0.00 0.65 0.65 94 1012.9
20260903232837 70 311 0.0 0.0 0.00 0.65 0.65 94 1012.9
20260903232359 70 312 0.0 0.0 0.00 0.65 0.65 94 1012.7
20260903231907 70 312 0.0 1.0 0.00 0.65 0.65 93 1012.6
20260903231326 70 311 0.0 1.0 0.00 0.65 0.65 94 1012.4
20260903230853 70 86 0.0 1.0 0.00 0.65 0.65 93 1012.2
20260903230417 71 292 0.0 0.0 0.00 0.65 0.65 93 1012.7
20260903225908 71 292 0.0 0.0 0.00 0.65 0.65 93 1012.9
20260903225411 71 292 0.0 0.0 0.00 0.65 0.65 93 1012.9
20260903224833 71 292 0.0 0.0 0.00 0.65 0.65 94 1012.6
20260903224340 71 292 0.0 0.0 0.00 0.65 0.65 93 1012.4
20260903223852 71 292 0.0 0.0 0.00 0.65 0.65 93 1012.7
20260903223417 71 292 0.0 0.0 0.00 0.65 0.65 92 1012.8
20260903222839 71 292 0.0 1.0 0.00 0.65 0.65 93 1012.7
20260903222401 71 328 0.0 1.0 0.00 0.65 0.65 93 1012.6
20260903221910 71 326 0.0 3.0 0.00 0.65 0.65 93 1012.3
20260903221324 71 360 1.0 3.0 0.00 0.65 0.65 93 1012.3
20260903220847 71 9 0.0 2.0 0.00 0.65 0.65 94 1012.0
20260903220348 70 6 0.0 2.0 0.00 0.65 0.65 93 1012.3
20260903215907 71 324 0.0 2.0 0.00 0.65 0.65 94 1012.1
20260903215325 71 319 0.0 0.0 0.00 0.65 0.65 94 1012.2
20260903214847 71 320 0.0 1.0 0.00 0.65 0.65 93 1012.5
20260903214354 71 281 0.0 0.0 0.00 0.65 0.65 93 1012.6
20260903213900 71 281 0.0 0.0 0.00 0.65 0.65 93 1012.4
20260903213405 71 281 0.0 1.0 0.00 0.65 0.65 93 1012.3
20260903212853 71 281 0.0 1.0 0.00 0.65 0.65 92 1012.5
20260903212416 71 281 0.0 0.0 0.00 0.65 0.65 92 1012.6